Погода в Ховрине

Россия / Ульяновская область     54°06′40″N   47°10′24″E
темп.,
°C
ветер,
м/с
пор.,
м/с
влажн.,
%
обл.,
%
осадки,
мм/ч
давл.,
гПа
погр.,
м
26 января, вт
вт2601:00−3ююв51193100 0.0 1025475
04:00−1ю51094100 0.1 1024521
07:00−2ююв5109394 0.0 1024503
10:00−3ююв5119396 0.1 1024478
13:00−2ю7129198 0.0 1024639
16:00−2ю6119099 0.0 1022624
19:00−2ю71393100 0.0 1024760
22:00−1ю61292100 0.1 1023442
27 января, ср
ср2701:00−1ююв51292100 0.0 1022418
04:00−1ю61291100 0.0 1022739
07:00−1ю71391100 0.0 1021609
10:00−1ю81493100 0.0 1020579
13:000ю81492100 0.0 1021656
16:000ю71491100 0.0 1020551
19:00−2ю61292100 0.0 1020517
22:00−3ю61392100 0.0 1020491
28 января, чт
чт2801:00−3ю61288100 0.0 1020423
04:00−4ю51289100 0.0 1019396
07:00−4ю51091100 0.0 1019351
10:00−5ююв41092100 0.0 1019285
13:00−4ююв5890100 0.0 1018338
16:00−5ююв4892100 0.0 1017318
19:00−7ююв5994100 0.0 1017254
22:00−9ююв4994100 0.0 1016246
29 января, пт
пт2901:00−11юв3796100 0.0 1016168
04:00−11юв3597100 0.1 1014127
07:00−8юв4796100 0.1 1012332
10:00−8вюв4797100 0.1 1010255
13:00−6вюв4694100 0.1 1008417
16:00−5юв3594100 0.1 1005390
19:00−7вюв2496100 0.1 1003107
22:00−6ююз2397100 1.3 1002152
30 января, сб
сб3001:00−6юз3696100 1.3 1002267
04:00−5юз4895100 2.2 1003364
07:00−4юз41093100 0.1 1004286
10:00−3юз5109392 0.1 1006399
13:00−1ю589275 0.0 1006446
16:00−1ю589688 0.2 1006531
19:00−2юз389499 0.1 1007380
22:00−6юз339695 0.2 100858